Flag for Finland Weather past 2 weeks in Jyväskylä, Finland

Now
68 °F

Partly sunny.


Feels Like: 68 °F
Forecast: 48 / 71 °F
Wind: 6 mph from West

Location: Jyvaskyla Airport

Current Time: Aug 4, 2015 at 5:14:49 PM

Latest Report: Aug 4, 2015 at 4:20 PM


Visibility: N/A

Pressure: 30.12 "Hg

Humidity: 49%

Dew point: 48 °F

Location of JyväskyläLocation

Historic Weather in Jyväskylä — Graph

°F

Jyväskylä temperature yesterday

Maximum temperature yesterday: 66 °F (at 12:50 PM)
Minimum temperature yesterday: 48 °F (at 1:50 AM)
Average temperature yesterday: 58 °F

Past Weeks' High & Low Weather Summary

 TemperatureHumidityPressure
High70 °F (Jul 21, 4:20 PM)100% (Jul 22, 8:50 AM)30.12 "Hg (Jul 22, 8:50 AM)
Low48 °F (Jul 21, 4:50 AM)31% (Jul 21, 4:50 PM)29.47 "Hg (Jul 29, 10:20 AM)
Average58 °F82%29.68 "Hg
* Reported Jul 20 4:20 PM — Aug 4 4:20 PM, Jyväskylä, Weather by CustomWeather, © 2015

Note: Actual official high and low records may vary slightly from our data, if they occured in-between our weather recording intervals... More about our weather records

Advertising

Jyväskylä weather history for previous 24 hours

 ConditionsComfort  
Time TempWeatherWind HumidityBarometerVisibility
4:20 PM
Tue, Aug 4
68 °FPartly sunny.6 mph49%30.12 "HgN/A
3:50 PM66 °FScattered clouds.5 mph52%30.12 "HgN/A
3:20 PM66 °FScattered clouds.6 mph52%30.12 "HgN/A
2:50 PM64 °FScattered clouds.6 mph60%30.12 "HgN/A
2:20 PM64 °FScattered clouds.8 mph60%30.12 "HgN/A
1:50 PM64 °FScattered clouds.7 mph60%30.12 "HgN/A
1:20 PM63 °FBroken clouds.10 mph64%30.12 "HgN/A
12:50 PM64 °FBroken clouds.8 mph64%30.12 "HgN/A
12:20 PM63 °FBroken clouds.8 mph68%30.12 "HgN/A
11:50 AM61 °FBroken clouds.9 mph72%30.12 "HgN/A
11:20 AM61 °FBroken clouds.7 mph72%30.12 "HgN/A
10:50 AM61 °FScattered clouds.6 mph72%30.12 "HgN/A
10:20 AM61 °FPartly sunny.6 mph77%30.12 "HgN/A
9:50 AM61 °FPartly sunny.8 mph72%30.12 "HgN/A
9:20 AM59 °FScattered clouds.6 mph77%30.12 "HgN/A
8:50 AM59 °FPassing clouds.6 mph77%30.12 "HgN/A
8:20 AM57 °FSunny.6 mph82%30.12 "Hg10 mi
7:20 AM55 °FSunny.6 mph88%30.12 "Hg10 mi
6:50 AM54 °FPassing clouds.7 mph88%30.12 "HgN/A
6:20 AM52 °FPassing clouds.5 mph94%30.09 "HgN/A
5:50 AM52 °FPassing clouds.3 mph94%30.09 "HgN/A
5:20 AM52 °FClear.3 mph94%30.09 "Hg10 mi
4:50 AM54 °FClear.3 mph88%30.09 "Hg10 mi
4:20 AM54 °FClear.2 mph94%30.09 "Hg10 mi
3:50 AM55 °FClear.6 mph88%30.09 "Hg10 mi
3:20 AM55 °FClear.6 mph88%30.09 "Hg10 mi
2:50 AM57 °FPassing clouds.7 mph82%30.09 "HgN/A
2:20 AM57 °FMostly cloudy.5 mph88%30.09 "HgN/A
1:50 AM57 °FOvercast.No wind88%30.09 "HgN/A
1:20 AM57 °FMostly cloudy.2 mph82%30.07 "HgN/A
12:20 AM57 °FClear.5 mph82%30.07 "Hg10 mi
11:50 PM
Mon, Aug 3
59 °FClear.6 mph77%30.07 "Hg10 mi
11:20 PM57 °FClear.5 mph82%30.07 "Hg10 mi
10:50 PM59 °FSunny.5 mph77%30.07 "Hg10 mi
10:20 PM57 °FPartly sunny.2 mph82%30.07 "HgN/A
9:50 PM57 °FScattered clouds.2 mph77%30.04 "HgN/A
9:20 PM59 °FSunny.7 mph72%30.04 "Hg10 mi
8:50 PM61 °FSunny.9 mph68%30.04 "Hg10 mi
8:20 PM63 °FSunny.10 mph64%30.04 "Hg10 mi
7:50 PM63 °FSunny.10 mph64%30.04 "Hg10 mi
7:20 PM64 °FSunny.13 mph56%30.01 "Hg10 mi
6:50 PM66 °FPartly sunny.9 mph60%30.01 "HgN/A
6:20 PM64 °FScattered clouds.9 mph64%30.01 "HgN/A
5:20 PM63 °FScattered showers. Partly sunny.10 mph73%30.01 "HgN/A
Weather by CustomWeather, © 2015

See weather overviewHow to use our weather pages